RH
24 29 33 34 42 46 49 50 52 62 63 60 59 51 53 66 57 55 62 55 43 36 57 62 63 62 26 74 76 76 88 38 34 28 28 43 73 94
30 37 39 42 47 48 53 57 58 59 63 64 65 65 66 66 64 68 67 64 54 41 49 55 50 69 70 22 22 70 76 82 37 46 43 93 94 79
36 44 43 49 54 56 60 64 66 68 71 61 71 74 75 75 72 74 75 68 59 53 45 57 51 58 73 76 33 87 88 87 89 45 29 55 99 85
42 48 52 59 58 53 52 54 58 67 82 84 62 87 87 81 76 73 77 71 65 60 49 65 67 74 78 76 84 45 66 78 85 69 45 50 79 94
55 63 64 67 63 58 59 60 67 78 86 89 78 82 86 86 66 71 75 67 76 68 64 46 50 68 78 79 80 60 44 55 60 77 71 68 54 82
71 73 73 75 75 73 81 90 93 94 92 92 92 90 90 82 84 88 80 76 76 71 68 58 44 42 51 56 69 58 45 62 66 60 65 63 52 63
79 81 81 82 80 84 97 93 96 98 99 97 94 92 96 92 97 90 91 82 76 75 74 64 38 35 36 51 54 50 54 61 86 85 78 99 92 65
89 86 83 82 83 91 91 92 94 96 98 100 98 94 92 92 92 85 91 99 100 88 80 59 48 47 41 34 44 52 54 58 67 79 80 69 97 100
87 86 91 93 88 83 86 96 93 85 89 93 96 92 84 78 86 88 91 100 98 89 82 76 58 47 40 35 47 48 47 61 71 56 52 60 63 93
93 87 84 80 87 99 97 97 98 97 95 75 74 77 90 86 94 100 90 93 91 90 92 76 67 49 34 33 42 53 55 80 74 63 54 61 69 55
84 86 78 82 89 97 96 89 88 90 86 92 98 94 83 84 87 90 95 97 98 93 90 78 68 58 51 40 47 58 69 90 77 74 81 82 94 83
86 83 81 100 100 97 97 97 95 94 83 87 91 93 88 80 78 84 86 97 97 97 73 86 78 78 84 63 60 63 79 80 75 48 36 65 88 87
91 88 94 97 99 99 100 98 95 98 98 96 93 85 88 74 73 76 80 96 97 96 81 94 84 83 89 89 88 73 72 74 54 39 36 29 28 68
94 93 86 97 100 98 95 100 99 100 88 82 95 90 89 96 77 85 85 88 92 97 96 93 94 84 81 83 90 89 69 54 61 53 42 32 31 60
86 92 98 89 83 74 76 90 87 84 87 95 97 100 100 99 89 88 87 89 94 92 97 93 79 78 71 82 90 89 84 67 69 63 56 40 33 43
90 96 80 77 76 82 83 79 83 88 99 96 96 97 92 97 96 89 92 87 92 85 83 79 76 77 71 70 85 96 96 96 82 82 72 50 38 32
98 84 80 84 89 94 92 91 92 95 99 90 90 86 82 97 93 89 97 95 98 95 84 91 90 81 76 90 100 100 99 92 90 84 62 52 39 30
90 85 89 93 95 97 96 96 98 97 95 95 93 95 90 85 97 95 96 98 96 91 92 98 100 96 97 90 96 98 99 93 73 65 66 66 48 32
86 90 94 95 96 97 99 100 100 95 91 93 98 95 99 92 92 96 95 98 93 90 87 92 96 98 97 96 74 82 90 85 80 89 76 76 81 58
93 100 98 98 100 100 100 100 100 92 91 96 94 96 96 98 97 98 94 96 98 93 89 84 89 96 98 88 83 79 89 95 86 87 77 70 62 62
100 97 96 99 97 94 96 92 98 96 100 94 91 96 96 97 96 96 99 97 99 99 97 94 88 97 96 99 97 81 70 80 81 84 82 77 70 64
100 99 94 95 97 96 94 92 97 95 96 94 93 97 96 97 96 97 95 98 99 89 94 94 96 97 95 93 94 87 80 82 83 87 84 81 84 96
100 100 96 95 97 96 95 92 95 94 98 98 100 98 96 96 97 96 98 99 99 98 99 91 90 95 92 97 95 90 87 98 81 75 76 83 87 81
Wind_Speed
25 25 26 27 27 29 30 29 32 39 36 33 34 35 34 30 33 30 31 33 31 27 26 26 27 28 29 27 27 28 26 34 32 30 27 27 28 27
27 28 28 29 29 29 30 30 31 35 45 36 37 34 32 32 33 30 32 31 33 31 29 28 27 26 28 28 28 27 27 29 30 30 27 24 25 28
28 29 29 28 29 30 31 31 33 33 40 51 41 36 32 30 32 30 30 31 30 32 32 28 27 28 28 27 26 27 27 28 27 30 30 27 23 26
29 29 30 31 33 33 31 31 32 32 34 42 49 37 35 33 35 33 31 31 35 34 29 28 28 28 26 25 28 32 32 28 23 24 27 28 25 25
28 30 31 32 32 31 30 31 32 32 33 35 46 42 39 37 38 34 32 33 29 31 29 30 29 27 26 27 27 25 29 30 29 27 25 27 28 26
28 29 31 32 32 32 31 32 33 33 34 37 40 42 38 37 37 35 35 32 33 32 34 35 30 30 29 29 26 29 27 26 24 25 25 27 28 27
30 31 32 32 30 28 28 31 32 33 32 34 36 36 37 36 32 35 37 38 40 36 35 34 30 31 28 26 26 27 24 23 22 22 23 21 24 25
30 32 33 32 31 29 28 29 29 32 34 33 34 35 36 36 36 38 37 35 35 38 27 32 29 31 29 27 26 25 24 23 22 24 25 27 22 21
30 32 34 35 34 34 32 31 29 28 28 32 36 38 39 37 36 37 35 35 36 27 25 32 28 32 29 26 23 23 25 23 24 25 26 29 31 25
30 34 36 35 30 30 34 35 35 36 36 32 32 34 35 34 33 35 35 33 36 32 26 34 29 32 29 26 22 20 20 22 24 22 21 23 24 27
32 30 31 31 30 27 31 34 35 36 37 33 30 33 33 32 30 30 32 32 30 28 24 28 27 28 25 24 21 18 18 20 19 18 18 16 16 17
31 32 31 29 29 29 31 35 39 40 37 35 35 34 34 34 35 30 29 31 32 30 25 22 23 23 26 22 16 13 14 15 15 20 16 17 17 18
32 32 34 30 30 32 29 32 34 33 36 34 35 35 35 30 28 26 26 25 27 31 27 23 24 24 22 25 20 15 14 19 21 15 16 16 17 19
30 33 32 30 30 28 25 24 26 28 31 31 28 29 29 28 27 26 23 21 23 26 25 22 24 24 24 24 25 23 21 19 18 17 14 10 12 15
28 27 28 30 28 26 24 25 23 24 26 25 25 27 31 25 23 22 21 20 21 23 21 21 23 23 23 25 28 26 23 20 19 15 17 18 15 13
26 27 27 23 23 25 26 26 25 25 24 26 25 25 23 21 22 21 21 21 21 22 17 19 19 21 22 23 25 25 23 23 22 22 22 22 17 16
24 25 24 26 28 28 29 28 28 28 28 27 27 25 24 22 22 21 19 20 20 22 20 18 21 23 23 20 24 26 23 22 22 22 23 21 16 15
22 22 24 25 27 28 30 30 28 28 29 28 27 25 26 25 23 21 19 18 20 20 20 20 18 15 17 21 22 25 24 23 20 19 18 20 21 17
21 23 24 25 26 27 29 30 30 29 29 27 29 29 26 27 23 22 20 18 20 20 20 19 20 20 20 25 25 22 20 21 19 16 16 17 21 20
21 22 23 24 25 26 27 30 36 32 29 29 28 30 28 25 23 21 22 20 19 19 21 20 20 21 24 27 27 25 23 20 17 18 20 20 21 22
23 23 22 22 24 26 28 29 33 34 30 29 29 32 31 27 24 22 21 20 20 21 22 21 17 16 16 19 25 26 21 18 17 17 19 20 21 22
22 24 24 22 24 26 28 30 32 34 35 34 33 33 32 29 26 22 22 22 21 21 22 19 17 15 17 21 25 22 22 19 17 18 19 21 21 21
24 23 23 23 24 25 28 30 31 34 36 39 37 33 33 31 26 22 20 21 21 19 18 17 15 14 15 16 18 21 20 19 19 18 20 18 21 23
Wind_Direction
315 313 312 312 308 305 303 303 304 305 301 302 301 302 302 300 299 297 295 299 301 302 301 299 298 297 290 298 298 296 292 279 279 280 279 273 270 260
312 310 308 307 306 304 302 301 298 298 298 300 299 299 299 299 299 297 291 291 295 301 299 298 298 296 296 291 295 298 295 291 278 276 275 278 273 266
309 308 308 309 308 307 303 299 298 298 298 299 298 300 300 298 298 295 290 283 284 294 295 294 296 296 295 296 293 297 293 290 283 271 273 270 267 266
310 309 309 308 304 304 305 303 301 299 297 296 299 300 298 302 300 297 287 282 283 286 291 291 295 295 294 294 290 287 289 293 290 285 275 270 262 256
309 308 309 311 311 311 310 305 303 302 297 293 296 300 296 301 307 303 299 289 283 280 280 291 292 291 290 293 295 296 295 292 286 288 280 273 263 252
309 310 312 313 313 312 309 305 302 299 296 294 292 294 302 305 303 304 304 301 285 278 280 283 289 290 289 293 289 295 293 296 295 286 281 270 265 254
311 312 312 314 313 308 302 302 300 297 295 294 296 299 296 302 300 303 298 300 294 280 274 285 288 289 285 285 291 293 294 294 285 287 281 282 268 254
312 313 314 316 317 311 304 298 291 291 290 291 293 291 293 296 299 301 300 295 287 277 273 284 289 288 286 284 288 290 293 291 287 286 283 270 281 269
312 315 314 314 312 310 306 301 297 294 286 286 286 286 292 297 299 297 297 286 289 285 288 284 289 290 290 289 290 290 286 283 284 284 282 274 272 268
314 315 316 317 317 311 306 302 300 299 289 288 290 293 293 294 294 293 293 292 289 277 275 282 292 290 293 290 286 283 280 277 286 295 284 274 274 268
314 319 322 321 320 314 306 304 304 298 300 297 289 289 290 289 289 293 288 289 284 289 281 281 289 297 298 289 285 280 273 272 283 293 291 271 273 263
323 325 326 321 316 314 309 304 303 307 307 304 298 295 295 290 290 290 290 284 281 282 280 281 293 298 299 297 294 281 255 265 273 294 286 280 275 275
320 323 324 322 320 318 314 305 305 308 303 299 296 298 294 293 295 293 296 285 281 279 275 282 284 285 282 279 276 274 251 269 288 289 287 283 270 265
320 320 323 323 319 321 325 327 316 308 304 304 304 304 300 292 291 294 291 284 282 278 280 280 277 275 281 279 270 267 271 280 284 294 296 308 276 256
322 323 319 324 326 326 331 330 333 331 330 315 307 312 302 294 305 298 292 285 286 274 274 269 273 274 275 275 270 273 272 273 281 289 302 307 299 274
331 325 327 332 344 348 346 343 342 341 336 333 314 305 320 305 297 301 296 289 287 277 264 272 263 268 272 268 270 273 267 264 276 289 302 299 293 286
322 325 335 346 346 345 345 346 345 345 338 336 333 323 307 311 309 312 297 288 283 283 273 272 268 267 265 265 266 268 270 265 276 290 291 291 288 276
328 342 348 348 346 345 344 340 338 340 343 339 335 332 326 308 299 304 296 290 284 281 275 271 271 274 272 266 258 263 267 273 280 283 277 287 290 281
344 346 346 346 344 345 346 348 342 338 339 339 337 333 327 321 295 289 298 291 282 282 281 270 266 268 266 268 274 271 273 283 291 267 272 282 291 297
346 340 337 340 343 343 344 347 347 342 340 337 337 337 330 323 310 286 285 292 288 284 278 272 268 264 263 265 274 276 277 279 274 270 281 286 286 281
345 344 344 342 343 344 347 347 348 347 341 338 338 338 333 328 315 298 281 283 282 281 281 282 287 287 296 281 269 269 268 269 272 272 280 280 284 288
345 344 344 344 345 344 345 345 345 347 348 345 341 336 331 327 317 301 287 277 283 281 275 277 279 288 279 284 259 268 277 276 279 277 272 266 268 270
348 341 345 343 342 343 345 344 346 347 348 345 340 334 334 329 322 302 291 275 273 281 279 273 278 280 278 275 273 276 281 279 281 279 264 262 264 266